Regional Weather Roundup
Issued by NWS

Home | Current Version | Previous Version | Graphics & Text | Print | Product List | Glossary On
Versions: 1 2 3 4 5 6 7 8 9 10 11 12 13 14 15 16 17 18 19 20 21 22 23 24 25 26 27 28 29 30 31 32 33 34 35 36 37 38 39 40 41 42 43 44 45 46 47 48 49 50
000
ASUS43 KLSX 201257
RWRMO

WEATHER SUMMARY FOR MISSOURI
NATIONAL WEATHER SERVICE SPRINGFIELD MO
700 AM CST SAT JAN 20 2018

NOTE: "FAIR" INDICATES FEW OR NO CLOUDS BELOW 12,000 FEET WITH NO
       SIGNIFICANT WEATHER AND/OR OBSTRUCTIONS TO VISIBILITY.
       CURRENT SKY AND/OR WEATHER CONDITIONS ARE NOT AVAILABLE FOR
       CHILLICOTHE AND FARMINGTON.

MOZ001>031-035>038-043-044-053-054-201400-
...NORTHERN AND WESTERN MISSOURI...

CITY           SKY/WX    TMP DP  RH WIND       PRES   REMARKS
KANSAS CTY INT CLOUDY    45  41  86 SW13      29.87S
LEE`S SUMMIT   CLOUDY    46  43  89 SW14      29.88S
ST JOSEPH      CLOUDY    39  38  96 S5        29.88R
CHILLICOTHE      N/A     39  36  89 S5        29.90R

$$
MOZ066>068-077>081-088>096-101>105-201400-
...SOUTHWEST MISSOURI...

CITY           SKY/WX    TMP DP  RH WIND       PRES   REMARKS
SPRINGFIELD    CLOUDY    44  39  82 S9        29.95S
JOPLIN         CLOUDY    50  47  89 S15G23    29.93R

$$
MOZ032>034-039>042-045>050-055>058-069>072-201400-
...CENTRAL MISSOURI...

CITY           SKY/WX    TMP DP  RH WIND       PRES   REMARKS
COLUMBIA       NOT AVBL
JEFFERSON CITY MOCLDY    32  29  88 E3        29.96R
ROLLA          CLOUDY    40  37  89 S17       29.97R
SEDALIA        CLOUDY    46  43  89 SW12      29.92S
WARRENSBURG    CLOUDY    43  37  81 S7        29.90S

$$
MOZ051-052-059>065-201400-
...EAST CENTRAL MISSOURI...

CITY           SKY/WX    TMP DP  RH WIND       PRES   REMARKS
ST LOUIS INTL  CLOUDY    33  28  81 S5        29.99S WCI  29

$$
MOZ072>076-082>087-097>100-106>115-201400-
...SOUTH CENTRAL AND SOUTHEAST MISSOURI...

CITY           SKY/WX    TMP DP  RH WIND       PRES   REMARKS
CAPE GIRARDEAU FAIR      28  23  81 SE3       30.12R
POPLAR BLUFF   FAIR      31  26  82 CALM      30.11R

$$



USA.gov is the U.S. government's official web portal to all federal, state and local government web resources and services.